Probability
0 0 0 0 0 0 0 0 0 0 0 0 0 0 0 0 0 0 0 0 0 0 0 0 0 0 0 0 0 0 0 0 0 0 0 0 1 1
0 0 0 0 0 0 0 0 0 0 0 0 0 0 0 0 0 0 0 0 0 0 0 0 0 0 0 0 0 0 0 0 0 0 0 0 0 1
0 0 0 0 0 0 0 0 0 0 0 0 0 0 0 0 0 0 0 0 0 0 0 0 0 0 0 0 0 0 0 0 0 0 0 0 0 0
0 0 0 0 0 0 0 0 0 0 0 0 0 0 0 0 0 0 0 0 0 0 0 0 0 0 0 0 0 0 0 0 0 0 0 0 0 0
0 0 0 0 0 0 0 0 0 1 1 0 0 0 0 0 0 0 0 0 0 0 0 0 0 0 0 0 0 0 0 0 0 0 0 0 0 0
0 0 0 0 0 0 0 0 0 1 2 1 1 0 0 0 0 0 0 0 0 0 0 0 0 0 0 0 0 0 0 0 0 0 0 0 0 0
0 0 0 0 0 0 0 0 0 1 2 2 2 1 0 0 0 0 0 0 0 0 0 0 0 0 0 0 0 0 0 0 0 0 0 0 0 0
0 0 0 0 0 0 0 0 0 0 1 1 2 1 0 0 0 0 0 0 0 0 0 0 0 0 0 0 0 0 0 0 0 0 0 0 0 0
0 0 0 0 0 0 0 0 0 0 0 0 1 1 0 0 0 0 0 0 0 0 0 0 0 0 0 0 0 0 0 0 0 0 0 0 0 0
0 0 0 0 0 0 0 0 0 0 0 0 0 0 0 0 0 0 0 0 0 0 0 0 0 0 0 0 0 0 0 0 0 0 0 0 0 0
0 0 0 0 0 0 0 0 0 0 0 0 0 0 0 0 0 0 0 0 0 0 0 0 0 0 0 0 0 0 0 0 0 0 0 0 0 0
0 0 0 0 0 0 0 0 0 0 0 0 0 0 0 0 0 0 0 0 0 0 0 0 0 0 0 0 0 0 0 0 0 0 0 0 0 0
0 0 0 0 0 0 0 0 0 0 0 0 0 0 0 0 0 0 0 0 0 0 0 0 0 0 0 0 0 0 0 0 0 0 0 0 0 0
0 0 0 0 0 0 0 0 0 0 0 0 0 0 0 0 0 0 0 0 0 0 0 0 0 0 0 0 0 0 0 0 0 0 0 0 0 0
0 0 0 0 0 0 0 0 0 0 0 0 0 0 0 0 0 0 0 0 0 0 0 0 0 0 0 0 0 0 0 0 0 0 0 0 0 0
0 0 0 0 0 0 0 0 0 0 0 0 0 0 0 0 0 0 0 0 0 0 0 0 0 0 0 0 0 0 0 0 0 0 0 0 0 0
0 0 0 0 0 0 0 0 0 0 0 0 0 0 0 0 0 0 0 0 0 0 0 0 0 0 0 0 0 0 0 0 0 0 0 0 0 0
0 0 0 0 0 0 0 0 0 0 0 0 0 0 0 0 0 0 0 0 0 0 0 0 0 0 0 0 0 0 0 0 0 0 0 0 0 0
0 0 0 0 0 0 0 0 0 0 0 0 0 0 0 0 0 0 0 0 0 0 0 0 0 0 0 0 0 0 0 0 0 0 0 0 0 0
0 0 0 0 0 0 0 0 0 0 0 0 0 0 0 0 0 0 0 0 0 0 0 0 0 0 0 0 0 0 0 0 0 0 0 0 0 0
0 0 0 0 0 0 0 0 0 0 0 0 0 0 0 0 0 0 0 0 0 0 0 0 0 0 0 0 0 0 0 0 0 0 0 0 0 0
0 0 0 0 0 0 0 0 0 0 0 0 0 0 0 0 0 0 0 0 0 0 0 0 0 0 0 0 0 0 0 0 0 0 0 0 0 0
0 0 0 0 0 0 0 0 0 0 0 0 0 0 0 0 0 0 0 0 0 0 0 0 0 0 0 0 0 0 0 0 0 0 0 0 0 0
Wind_Speed
7 7 7 6 6 6 6 6 6 7 7 5 4 4 4 4 7 6 7 11 14 14 14 14 14 14 15 15 14 14 14 14 14 15 16 17 18 18
6 7 8 6 6 6 6 6 6 7 8 4 4 4 4 4 6 6 7 10 12 13 14 14 14 14 14 14 14 14 14 14 14 16 17 17 17 17
7 8 9 7 6 6 5 6 6 6 8 6 4 4 5 5 5 5 5 6 6 11 13 13 13 13 13 13 13 13 13 13 13 15 16 16 16 16
8 7 8 6 7 6 5 6 6 6 6 8 5 4 5 5 5 5 5 4 4 8 11 12 12 13 12 12 12 12 12 12 12 13 13 13 14 15
8 8 7 7 8 6 6 6 5 5 5 6 6 4 3 3 4 4 4 4 4 5 8 10 11 11 11 11 11 11 10 10 11 10 11 12 13 13
7 7 7 8 8 7 7 7 6 6 5 5 6 4 4 3 3 3 4 3 4 3 5 6 7 9 9 10 10 9 10 10 10 10 10 9 10 11
7 7 7 8 9 8 7 6 6 6 5 5 5 5 4 3 4 3 4 3 3 3 3 3 4 4 5 8 9 9 10 10 10 10 9 9 9 10
7 7 7 8 9 11 11 10 8 7 7 6 6 6 6 5 4 4 3 3 4 3 3 4 3 4 4 4 6 9 10 10 10 9 9 8 8 8
6 6 7 7 8 7 8 8 9 10 10 8 7 7 6 6 5 5 5 4 5 3 2 4 3 4 3 3 6 7 8 7 7 8 7 7 6 7
6 6 7 7 7 6 5 5 5 6 6 6 6 6 5 4 5 5 4 3 2 2 2 3 2 3 2 2 5 6 7 6 6 6 6 6 5 5
6 6 6 6 8 7 5 5 5 4 4 5 5 4 4 4 3 2 2 2 2 3 1 2 2 2 2 2 2 3 4 5 5 5 5 5 4 4
5 5 7 8 8 7 5 5 6 4 2 2 3 3 3 3 3 3 3 3 2 3 2 2 2 1 2 2 1 1 2 2 3 3 3 3 4 2
5 5 5 9 9 8 7 5 6 4 3 2 2 2 2 1 2 2 1 2 2 2 2 2 2 1 2 1 2 1 1 1 2 2 3 3 3 2
5 4 4 8 9 9 6 5 5 4 2 2 1 1 1 1 1 1 1 1 1 1 2 2 2 2 1 1 2 1 1 1 1 1 1 2 2 2
4 7 8 8 7 5 5 6 4 2 2 2 2 2 1 1 1 1 2 2 3 3 1 1 1 1 1 1 1 1 1 1 1 1 1 1 2 2
4 5 7 6 5 5 5 3 2 2 2 2 1 1 1 1 0 0 0 1 2 3 4 3 1 1 1 0 1 1 1 1 1 1 1 1 1 1
5 3 2 2 2 2 2 2 1 0 1 1 1 1 1 0 0 1 0 1 1 0 2 3 3 3 3 1 1 1 1 1 1 1 1 1 1 2
5 3 3 2 2 2 2 2 2 1 0 1 1 1 1 1 1 1 1 1 1 1 1 1 1 2 2 3 2 1 1 1 1 1 1 1 2 2
3 2 2 2 2 2 2 2 2 1 1 0 1 1 1 1 1 1 1 1 1 1 1 1 1 1 1 1 3 2 0 0 0 1 1 1 2 3
2 2 2 2 2 2 2 1 1 1 1 0 1 1 1 2 1 1 1 1 1 1 1 1 1 1 1 1 1 2 2 0 0 1 1 1 2 3
2 2 2 2 2 2 2 2 1 1 1 1 0 1 1 2 1 1 1 2 2 1 1 1 1 2 1 1 2 2 2 3 1 1 1 0 1 2
3 3 3 2 2 2 2 1 1 1 1 1 1 1 1 1 2 2 2 2 1 1 1 0 0 1 1 2 2 1 2 3 4 3 2 2 1 1
3 3 3 3 2 2 1 1 1 1 1 1 1 1 1 2 1 2 2 2 2 2 2 1 1 2 2 2 2 1 2 2 2 3 3 4 3 3
Wind_Direction
245 245 244 246 244 239 235 228 238 258 257 245 242 236 228 223 228 227 227 231 230 231 233 236 239 243 247 249 250 251 251 250 248 246 247 250 249 247
248 249 247 243 242 239 236 234 232 243 260 250 245 250 237 243 238 235 235 238 233 232 234 237 238 239 242 245 245 249 251 250 249 244 246 247 245 244
257 252 250 246 245 241 239 235 233 234 255 265 251 247 237 234 238 234 238 232 232 234 235 236 237 238 240 243 244 247 251 251 252 247 246 245 242 242
260 260 259 255 249 246 242 242 239 235 246 262 262 249 246 238 237 236 240 235 234 235 235 238 240 239 238 239 241 244 248 250 250 248 244 242 240 240
262 259 260 255 252 250 245 245 247 250 247 253 262 258 257 251 251 254 241 238 240 237 234 238 238 238 239 239 239 242 243 245 246 245 242 241 240 239
267 266 265 255 250 252 248 243 243 244 247 252 256 258 259 255 244 248 254 238 242 243 240 242 240 238 238 239 239 239 238 241 245 245 241 241 242 241
271 267 267 267 262 256 256 246 239 240 241 246 250 256 252 242 238 236 250 245 247 232 233 238 236 234 235 240 239 237 234 237 242 243 241 241 241 239
274 276 274 267 266 261 261 256 248 243 242 239 243 247 251 249 247 242 236 247 254 222 223 244 226 234 236 231 238 234 234 236 239 240 239 241 242 237
272 276 280 277 274 260 257 257 254 254 248 243 242 244 244 238 235 240 235 236 250 236 223 249 237 242 248 251 247 235 235 239 240 238 237 235 237 240
273 273 274 277 270 269 254 252 254 254 252 248 245 248 251 245 232 237 240 242 268 272 224 238 249 260 273 263 255 233 234 239 241 234 231 234 240 241
281 279 277 275 281 285 261 250 255 258 268 270 277 277 268 260 248 216 215 212 256 260 231 218 244 267 270 269 278 257 242 241 243 235 229 227 229 234
292 284 280 284 285 285 261 245 248 252 259 282 288 303 288 268 262 235 219 226 237 246 230 202 223 221 263 276 279 291 269 259 258 240 238 240 238 220
293 293 289 294 291 287 279 258 256 262 238 232 244 263 286 284 280 278 260 230 224 238 219 192 204 214 216 262 295 290 263 256 251 248 255 253 244 223
289 294 298 306 302 296 284 272 273 273 233 219 231 244 262 274 296 344 21 12 332 246 213 199 198 198 194 240 262 291 290 263 231 227 227 246 247 247
298 303 309 312 313 305 296 291 280 242 215 216 229 239 243 208 158 69 52 51 37 23 19 348 146 164 167 207 235 250 276 273 227 198 209 215 220 208
311 309 313 314 315 319 321 311 283 231 212 211 205 196 169 150 136 117 77 65 45 15 15 22 45 125 146 272 224 251 243 221 223 215 218 227 223 203
311 309 307 310 320 324 326 327 321 280 199 169 159 154 150 134 45 28 44 28 70 354 2 16 36 55 72 84 260 243 228 205 202 219 216 244 252 232
321 318 320 316 314 320 327 332 343 350 174 154 151 155 159 149 92 53 49 62 90 81 49 22 46 40 38 27 9 256 249 208 204 203 201 220 261 256
332 328 323 319 320 325 328 329 328 337 352 129 152 153 142 130 119 107 87 79 75 70 47 20 22 75 73 331 327 342 221 265 276 235 234 219 244 260
341 325 320 324 326 323 327 330 332 347 7 61 144 149 141 133 130 129 127 119 111 91 51 25 20 25 163 211 257 318 338 268 212 254 285 301 286 285
337 335 330 332 335 334 337 337 337 346 0 15 98 124 124 122 125 126 129 124 108 102 78 2 342 17 52 74 66 358 345 356 342 222 224 291 308 304
337 338 338 337 340 339 339 342 351 0 11 20 45 91 110 126 132 131 132 129 113 98 76 26 0 36 49 78 79 30 357 1 6 356 306 240 219 230
335 337 337 336 334 335 338 351 360 353 2 16 34 75 107 113 116 121 123 118 113 113 107 88 59 58 65 83 85 58 32 7 4 10 354 337 316 288